NOAA 16 DEB, 41498

Orbit data source: Space-Track

NOAA 16 DEB, 41498 is space debris in SSO originally from a launch on Thu, 21 Sep 2000 UTC launched from the Air Force Western Test Range (AFWTR). Debris objects in space refer to the collection of defunct objects orbiting the Earth. Examples of debris include non-operational satellites, rocket bodies, and fragments generated from explosions, collisions, or faulty payload assembly.

Loading next visibility...
Identifier
41498, 2000-055LW
Orbit
SSO
Country
Flag of USUS
Related business
Manufacturer
Unknown
Mission
Spacecraft
Bus & Motor
Unknown
Mass
Unknown
Launch date (UTC)
2000-09-21 (25 years ago)
Launch vehicle
Unknown
Launch site
Air Force Western Test Range (AFWTR)
Object type
Payload
Rocket body
Debris
Shape & HBR
Unknown shape, 0.1 m
Radar Cross Section
Small (<0.1 m²)

Expand to show TLE details & history
Last TLE update: 2 days ago

TLE from 2 days ago
0 NOAA 16 DEB
1 41498U 00055LW  25292.10045717  .00003249  00000-0  14186-2 0  9991
2 41498  98.9796  66.8920 0019351 284.8374  75.0661 14.24499821497472
Epoch: 2025-10-19T02:24Z
TLE epoch observation values (Epoch: 2025-10-19T02:24:39.499Z)
Latitude
0.00002°
Longitude
2.90545°
Altitude
809.526 km
Speed
7.45 km/s
True Right ascension
04h 27m 34s
True Declination
0° 00' 00"
Sunlit
Object was in full shadow at epoch
Visualization orbit readout
Latitude
Unknown
Longitude
Unknown
Altitude
Unknown
Speed
Unknown
Apparent Right ascension
Unknown
Apparent Declination
Unknown
Sunlit
N/A
Visualization observer readout
Local Sidereal Time
16:14:43
Azimuth
Unknown
Elevation
Unknown
Doppler factor
Unknown
Orbital elements
Apogee altitude
821.245 km
Perigee altitude
793.436 km
Semi-major axis
7,185.478 km
Eccentricity
0.00194
Inclination
98.9796°
RAAN
66.892°
Arg. of periapsis
284.8374°
True anomaly
75.28049°
Mean anomaly
75.0661°
Eccentric anomaly
75.17328°
Mean motion
3.56336 °/min
Orbital period
101.03 mins
BSTAR
0.0014186
Loading maneuver chart data...
Computing Atmospheric mass density...
Loading historical data...
Loading historical data...
Loading historical data...
Loading historical data...
Loading historical data...
Loading historical data...
Loading historical data...

Documentation

Showing up to 5 results
|